Powrót do katalogu

STARLINK-31208

AktywnyŁącznośćVLEO
NORAD 59037·PAYLOAD·🇺🇸 United States

Wystrzelony Feb 25, 2024 z Cape Canaveral Space Force Station

Loading…

Następne Przeloty (najbliższe 24 godziny)

TLE

ŚwieżeSource: CelesTrak SupGP

Epoka: Sep 14, 2026, 21:47 UTC

1 59037C 24038Q   26257.90812500  .00045706  00000+0  16553-2 0  2578
2 59037  43.0040  38.8879 0001764 272.9737 343.4109 15.27558540    12

Śledź STARLINK-31208 w czasie rzeczywistym z AllMySat

Download on the App Store